Wind_Speed
8 8 9 8 8 8 8 9 9 10 9 9 8 8 8 8 9 8 8 8 8 9 9 9 9 9 9 9 9 9 8 7 6 6 7 7 6 6 5 6 6 7 7
8 8 8 8 8 8 8 10 9 9 9 9 8 8 8 8 9 9 8 9 9 9 9 10 9 9 9 9 9 9 9 8 7 7 6 6 7 7 7 7 8 8 9
7 8 8 8 7 7 8 9 9 8 8 8 8 8 8 8 9 9 9 10 10 10 10 10 11 11 11 10 10 9 9 9 8 8 7 7 7 7 8 8 9 9 10
8 9 8 8 7 7 8 9 9 8 8 8 9 9 9 9 9 10 10 11 11 11 11 11 11 11 12 11 11 10 10 9 9 9 9 9 8 7 8 9 10 12 12
8 8 8 7 7 8 8 8 9 9 9 10 9 9 10 10 10 11 12 12 12 12 12 12 11 12 12 12 11 11 11 11 11 11 10 10 9 9 10 10 10 11 12
9 9 9 9 9 9 8 8 9 9 10 10 10 10 10 11 11 12 12 13 14 13 13 13 12 13 13 13 13 13 12 12 12 12 11 11 11 11 11 11 11 12 13
10 10 9 10 9 10 9 9 10 10 11 11 11 12 12 12 11 12 12 13 14 14 14 14 14 14 14 14 14 14 13 13 12 12 13 13 13 13 13 13 13 13 13
11 11 10 10 10 11 10 10 11 11 12 13 13 13 13 13 13 13 13 14 14 14 15 16 16 16 16 16 15 15 15 15 15 14 14 14 14 15 15 15 15 15 15
11 11 10 11 12 12 11 12 12 12 13 14 15 15 14 13 14 15 15 15 15 15 16 16 17 17 17 17 17 17 17 17 17 17 16 16 16 16 16 17 17 17 16
12 11 12 13 14 13 13 13 13 13 14 15 16 16 16 15 15 15 15 16 16 17 17 17 18 18 18 18 19 19 19 19 19 19 19 19 18 18 18 19 19 18 17
12 12 13 14 14 14 14 14 14 14 15 16 17 18 17 17 16 16 16 17 17 18 18 19 19 19 19 20 20 20 20 20 20 20 20 20 20 20 20 20 20 21 20
12 12 13 14 14 15 15 15 15 15 16 17 17 18 18 17 17 17 17 18 19 19 19 19 20 20 20 21 21 21 22 22 22 22 22 22 22 22 22 22 22 22 22
13 13 14 14 15 15 15 15 15 16 16 17 18 18 18 18 18 18 19 19 20 20 20 20 21 21 22 22 22 22 23 23 23 23 23 23 24 24 24 24 24 24 24
15 15 14 15 16 16 16 17 17 18 18 19 19 19 19 19 19 20 20 20 21 21 21 22 22 22 23 23 23 24 24 24 24 24 24 24 24 24 25 25 25 25 25
17 17 17 17 17 17 18 18 19 20 19 20 21 21 20 20 21 21 22 22 23 23 23 23 24 24 24 24 24 24 24 24 25 25 25 26 25 25 26 26 26 27 27
19 19 19 19 19 19 19 20 20 21 22 22 22 22 22 22 22 23 23 24 25 25 25 25 25 26 26 25 25 25 25 26 26 26 26 27 27 27 27 27 28 28 28
21 20 20 20 21 21 22 22 22 23 23 23 23 23 24 23 23 24 25 25 26 26 26 26 27 27 27 27 27 27 27 27 27 27 27 27 28 28 28 28 29 29 30
20 21 22 22 22 23 23 23 23 24 24 25 24 25 25 25 25 25 26 27 27 28 28 28 29 29 29 29 29 29 29 29 29 29 29 29 29 29 29 30 30 31 31
22 22 23 24 24 25 24 24 25 25 25 26 26 27 27 27 27 27 28 28 28 29 29 30 30 30 30 31 31 30 30 30 31 31 31 31 31 31 31 32 32 32 33
23 24 24 25 25 26 26 26 26 26 27 27 27 28 28 28 28 29 29 30 30 30 30 30 30 30 30 31 31 31 31 31 32 32 33 33 33 33 33 33 33 33 33
26 26 26 27 28 28 28 28 28 28 28 28 29 29 30 30 30 31 31 31 31 31 31 31 31 31 31 31 32 32 32 32 32 33 34 34 34 34 34 33 33 34 34
28 28 28 29 29 30 29 29 29 29 30 30 30 31 32 32 32 32 33 33 32 32 32 32 32 32 32 32 32 32 33 34 34 34 34 34 34 34 34 34 34 35 35
29 30 29 30 30 30 30 29 29 30 31 32 32 32 33 33 33 33 34 34 33 34 34 33 33 33 33 33 33 34 34 35 35 35 35 34 34 34 34 34 34 34 35
29 30 29 28 29 29 30 30 30 31 32 32 33 33 33 33 33 34 34 34 34 34 34 34 35 34 33 34 34 35 35 35 35 35 34 33 33 33 32 32 33 34 34
29 29 29 28 29 30 30 31 32 32 33 33 34 34 33 34 34 34 35 35 35 35 34 34 34 34 34 35 35 35 35 34 34 34 33 33 33 32 32 33 33 33 33
28 29 29 29 30 31 31 31 32 32 32 33 34 34 34 34 35 35 35 35 34 34 34 34 34 34 35 35 35 35 35 35 35 34 33 33 33 33 33 33 33 32 32
Wind_Direction
26 23 21 18 15 17 21 18 21 19 19 19 18 19 17 14 11 7 2 358 353 351 349 349 346 343 340 336 336 336 332 330 320 316 317 310 305 295 279 267 262 258 257
15 12 12 11 11 9 7 9 11 13 14 14 10 7 7 6 3 0 355 351 346 341 339 340 340 338 335 332 329 328 326 325 321 313 306 306 300 292 283 274 265 259 258
0 357 0 4 4 0 360 360 0 1 3 3 359 354 350 349 347 348 346 344 339 336 333 333 334 332 329 326 323 323 320 319 316 314 307 303 296 291 288 279 268 263 261
348 349 350 351 351 349 349 350 352 352 350 347 347 342 337 336 335 335 336 334 331 329 328 327 326 324 323 321 320 318 316 312 309 308 305 302 293 286 284 280 275 271 264
343 346 348 343 337 333 336 339 339 343 343 338 338 336 330 327 327 329 329 327 325 323 320 322 320 318 318 317 317 314 311 309 305 302 301 299 297 291 286 280 279 275 272
337 340 339 334 331 328 327 329 331 333 331 331 331 326 325 324 322 324 325 323 319 318 317 316 314 314 312 312 313 314 311 309 306 301 299 295 294 294 291 286 283 282 279
331 334 337 335 331 327 324 324 326 327 327 329 326 323 323 322 321 319 320 321 319 317 317 315 310 308 306 307 308 307 307 308 306 302 298 294 290 290 289 288 286 284 282
323 325 328 331 328 326 323 320 321 322 323 322 320 321 323 324 321 320 319 319 316 314 315 315 312 309 307 306 305 303 302 302 303 302 300 296 290 289 287 286 285 283 280
321 320 324 323 322 321 318 317 316 317 318 318 318 320 319 320 322 321 320 316 312 311 313 313 311 309 306 303 302 301 300 298 297 297 297 295 292 288 286 285 284 282 279
322 318 316 318 319 319 316 312 313 313 315 317 318 320 318 316 316 315 317 315 313 311 311 310 309 307 305 304 301 299 297 296 294 292 293 292 291 289 286 284 283 282 281
315 316 317 318 320 321 321 316 315 314 317 320 319 317 316 313 311 312 313 314 315 314 313 311 310 307 303 303 303 301 297 295 295 293 291 290 288 288 286 283 282 281 279
311 311 314 316 318 319 317 315 314 313 314 315 317 318 315 312 310 312 313 313 312 311 311 311 309 308 305 303 302 301 299 297 296 293 291 290 288 286 285 284 282 280 279
304 303 308 311 311 311 310 311 311 310 310 311 310 312 313 310 309 309 310 310 310 309 309 309 308 306 304 303 302 301 300 299 297 294 292 290 288 286 285 283 281 280 279
303 301 303 307 306 304 304 306 308 309 310 311 310 309 308 308 308 308 309 308 307 306 307 307 306 305 303 302 301 301 300 299 297 296 293 291 289 287 285 283 280 278 277
300 303 303 303 303 302 303 303 304 306 309 310 308 307 306 305 304 305 305 305 305 304 304 304 304 304 302 300 299 299 298 297 296 295 293 291 288 287 285 283 280 279 278
294 297 298 298 301 302 302 301 302 305 306 307 307 306 305 305 304 304 303 304 304 303 303 302 302 301 300 298 297 297 297 296 295 294 292 291 288 286 285 283 282 279 278
291 291 292 294 297 299 299 300 300 302 303 304 305 306 306 305 305 305 305 304 304 303 302 301 300 299 299 297 296 296 296 295 294 294 293 291 288 286 285 284 282 280 278
285 288 290 292 294 295 296 298 299 301 301 302 303 305 305 304 305 306 306 304 303 302 301 299 298 297 296 294 294 295 295 295 294 293 291 290 287 285 284 283 282 280 280
285 286 288 289 292 293 294 295 298 298 299 301 302 303 303 303 306 306 304 303 302 301 300 299 298 297 295 294 294 295 294 294 294 293 291 289 287 285 284 283 282 281 279
284 285 286 288 290 292 295 297 298 299 299 299 300 301 301 302 304 305 304 303 303 302 301 299 298 297 297 296 296 295 294 294 294 293 292 290 288 286 284 282 281 280 279
283 284 285 287 289 291 294 296 296 297 297 298 299 299 301 302 303 302 301 301 302 301 301 299 298 298 298 297 296 295 294 293 293 292 292 291 289 287 285 283 281 280 279
284 285 285 286 287 289 293 295 295 296 296 297 298 299 300 301 301 301 301 301 301 300 300 299 298 298 298 296 295 294 294 293 293 293 293 290 289 288 286 284 282 281 279
284 285 284 285 287 290 293 293 294 294 294 295 297 298 298 298 299 299 299 301 300 300 299 298 298 297 296 295 295 294 294 294 293 293 292 290 289 288 287 285 283 282 281
283 285 285 286 289 292 293 292 292 292 293 294 295 296 296 297 297 297 297 299 299 298 298 298 298 298 297 297 297 296 295 294 293 293 292 291 290 289 288 287 285 284 283
283 285 288 288 289 290 291 294 295 294 294 295 296 295 295 295 296 296 297 298 298 299 298 298 299 299 298 297 297 297 297 295 295 293 293 293 291 290 289 288 287 285 284
287 288 289 289 291 292 293 295 296 297 297 297 297 296 296 297 297 297 298 298 298 298 298 298 299 299 299 298 298 299 298 298 297 295 295 295 294 292 289 288 288 287 287
Height
5904 5902 5901 5900 5898 5897 5895 5894 5892 5891 5890 5888 5887 5886 5885 5884 5883 5882 5881 5879 5878 5877 5875 5874 5873 5871 5870 5869 5867 5866 5865 5864 5862 5862 5861 5860 5859 5859 5858 5858 5857 5857 5857
5904 5903 5901 5900 5898 5897 5895 5894 5892 5891 5890 5889 5888 5887 5885 5884 5883 5882 5880 5879 5877 5876 5875 5873 5872 5870 5869 5868 5866 5865 5864 5862 5861 5860 5859 5859 5858 5857 5856 5856 5855 5855 5855
5904 5902 5901 5899 5898 5897 5895 5894 5892 5891 5890 5889 5888 5886 5885 5884 5883 5881 5880 5878 5877 5875 5874 5872 5871 5870 5868 5866 5865 5864 5862 5861 5860 5858 5858 5857 5856 5855 5854 5853 5853 5853 5853
5903 5901 5900 5899 5898 5896 5895 5893 5892 5891 5889 5888 5887 5886 5884 5883 5882 5880 5879 5877 5875 5874 5872 5871 5869 5868 5866 5865 5863 5862 5861 5859 5858 5857 5856 5854 5853 5853 5852 5851 5850 5850 5850
5902 5901 5899 5898 5897 5896 5894 5893 5891 5890 5888 5887 5885 5884 5883 5882 5880 5879 5877 5875 5874 5872 5871 5869 5867 5866 5864 5863 5861 5860 5859 5857 5856 5854 5853 5852 5851 5850 5850 5849 5848 5847 5847
5901 5900 5899 5897 5896 5894 5893 5891 5890 5889 5887 5885 5884 5883 5881 5880 5878 5877 5875 5873 5871 5870 5868 5866 5865 5863 5862 5860 5859 5858 5856 5855 5853 5852 5851 5849 5848 5848 5847 5846 5845 5845 5844
5900 5899 5897 5896 5894 5893 5891 5890 5889 5887 5885 5883 5882 5881 5879 5877 5875 5874 5873 5871 5869 5867 5865 5864 5862 5861 5859 5857 5856 5855 5853 5852 5851 5849 5848 5846 5845 5845 5844 5843 5843 5842 5841
5899 5897 5896 5895 5893 5891 5889 5888 5887 5885 5883 5882 5880 5878 5876 5875 5873 5871 5870 5868 5866 5864 5862 5861 5859 5857 5856 5854 5853 5851 5850 5849 5847 5846 5844 5843 5842 5841 5840 5840 5839 5838 5838
5897 5896 5894 5893 5891 5889 5887 5885 5884 5882 5881 5879 5877 5875 5874 5872 5870 5868 5866 5865 5863 5861 5859 5857 5855 5854 5852 5850 5849 5847 5846 5844 5843 5842 5840 5839 5838 5837 5836 5835 5834 5834 5834
5896 5894 5893 5891 5889 5886 5884 5883 5881 5880 5878 5876 5875 5873 5871 5869 5867 5865 5863 5861 5859 5857 5855 5854 5852 5850 5848 5846 5844 5843 5841 5840 5838 5837 5836 5834 5833 5832 5831 5830 5829 5829 5829
5894 5892 5890 5888 5886 5884 5882 5880 5879 5877 5876 5873 5872 5869 5867 5865 5864 5862 5860 5858 5856 5854 5852 5849 5847 5845 5843 5842 5840 5838 5836 5835 5833 5832 5830 5829 5828 5827 5826 5825 5824 5823 5823
5891 5889 5888 5886 5884 5882 5880 5878 5876 5874 5873 5870 5868 5866 5864 5862 5860 5858 5856 5854 5852 5850 5847 5845 5843 5841 5839 5837 5835 5833 5831 5829 5827 5826 5824 5823 5822 5821 5820 5819 5818 5817 5817
5888 5887 5885 5883 5881 5879 5877 5875 5873 5871 5869 5867 5865 5862 5860 5858 5856 5854 5852 5850 5848 5845 5843 5841 5838 5836 5834 5832 5830 5828 5825 5823 5821 5820 5818 5817 5815 5814 5813 5812 5812 5811 5810
5884 5883 5881 5879 5878 5876 5874 5872 5870 5868 5865 5863 5861 5859 5856 5854 5852 5850 5848 5846 5843 5841 5838 5836 5833 5831 5829 5826 5824 5822 5820 5817 5815 5813 5812 5810 5809 5807 5806 5805 5804 5804 5803
5880 5878 5877 5875 5874 5872 5870 5868 5866 5863 5861 5859 5857 5855 5852 5850 5848 5846 5843 5841 5838 5835 5833 5830 5828 5825 5823 5820 5818 5816 5813 5811 5809 5807 5805 5803 5801 5800 5799 5798 5797 5796 5795
5874 5873 5872 5871 5869 5867 5865 5863 5861 5859 5856 5854 5852 5850 5847 5845 5842 5840 5837 5835 5832 5829 5826 5824 5821 5819 5816 5814 5811 5809 5807 5804 5802 5800 5797 5795 5794 5792 5791 5789 5788 5788 5787
5869 5868 5867 5865 5864 5862 5860 5858 5856 5854 5851 5849 5846 5844 5841 5839 5837 5834 5831 5828 5825 5822 5820 5817 5814 5812 5809 5806 5804 5802 5799 5797 5794 5792 5789 5787 5786 5784 5783 5781 5780 5778 5777
5863 5862 5861 5860 5858 5856 5854 5852 5850 5848 5845 5843 5840 5838 5835 5833 5830 5827 5825 5822 5819 5816 5813 5810 5807 5804 5801 5799 5796 5793 5791 5788 5786 5783 5781 5779 5777 5775 5774 5773 5771 5770 5768
5858 5856 5855 5853 5852 5850 5847 5845 5843 5841 5839 5836 5834 5831 5829 5826 5823 5821 5818 5815 5811 5808 5805 5802 5799 5796 5793 5790 5787 5785 5782 5779 5777 5774 5772 5770 5768 5766 5764 5763 5762 5760 5759
5851 5850 5848 5846 5845 5843 5840 5838 5836 5834 5832 5829 5827 5824 5822 5819 5816 5813 5810 5807 5803 5800 5797 5793 5790 5787 5784 5781 5778 5775 5773 5770 5768 5765 5762 5760 5758 5756 5754 5752 5751 5750 5749
5844 5842 5841 5839 5837 5835 5833 5831 5829 5826 5824 5822 5819 5817 5814 5811 5808 5805 5802 5799 5795 5791 5788 5785 5782 5778 5775 5772 5769 5766 5763 5761 5758 5755 5753 5750 5747 5745 5743 5742 5740 5739 5738
5836 5834 5833 5831 5829 5827 5825 5823 5821 5818 5816 5814 5812 5809 5806 5803 5800 5797 5793 5790 5786 5783 5779 5776 5773 5769 5766 5763 5760 5757 5753 5751 5748 5745 5742 5740 5737 5735 5733 5731 5729 5728 5727
5828 5826 5824 5822 5820 5818 5816 5814 5812 5810 5808 5806 5803 5800 5797 5794 5791 5788 5784 5781 5777 5774 5771 5767 5764 5760 5757 5753 5750 5747 5744 5740 5738 5735 5732 5729 5727 5724 5722 5720 5718 5716 5715
5819 5817 5815 5812 5811 5809 5808 5806 5804 5802 5799 5797 5794 5791 5788 5785 5782 5779 5775 5772 5768 5765 5761 5758 5755 5751 5748 5744 5741 5737 5734 5731 5727 5724 5721 5719 5716 5714 5712 5709 5708 5706 5704
5811 5809 5807 5805 5803 5801 5799 5797 5794 5792 5790 5788 5785 5782 5779 5775 5772 5769 5765 5762 5759 5755 5752 5749 5746 5742 5739 5735 5731 5728 5724 5721 5717 5714 5712 5709 5707 5704 5702 5699 5697 5695 5694
5802 5801 5799 5797 5795 5793 5791 5788 5786 5783 5781 5778 5775 5772 5769 5766 5763 5759 5756 5752 5749 5746 5742 5739 5735 5732 5729 5725 5721 5717 5714 5710 5707 5705 5702 5699 5696 5694 5692 5690 5687 5685 5684